This demonstration page uses our WeatherBlox Daily Observations layout. Learn more.

Left ArrowRight Arrow

40.92945, -100.16068

Hourly Observations for February 15, 2016

Temp ( °F °C ) Dew Point ( °F °C ) Humidity (%) Winds ( mph kmh ) Pressure ( in mb ) Visibility ( mi km ) Precip ( " mm )
12:15 am 00:15 Clear 35 1.8 28 -2.1 76 76 NNW 12 19 29.97 1015 10 16.0934 N/A
12:35 am 00:35 Clear 35 1.9 28 -2.2 75 75 NW 10 17 29.97 1015 10 16.0934 N/A
12:55 am 00:55 Clear 34 0.9 28 -2.5 78 78 WNW 8 13 30 1016 10 16.0934 N/A
1:15 am 01:15 Partly Cloudy 32 0.2 27 -2.6 82 82 W 9 15 30 1016 10 16.0934 N/A
1:35 am 01:35 Partly Cloudy 32 undefined 27 -2.8 82 82 WNW 10 17 30 1016 10 16.0934 N/A
1:55 am 01:55 Clear 32 -0.1 27 -2.9 82 82 W 10 17 30 1016 10 16.0934 N/A
2:15 am 02:15 Clear 32 0.2 28 -2.5 82 82 W 8 13 30 1016 10 16.0934 N/A
2:35 am 02:35 Clear 31 -0.6 26 -3.1 83 83 WNW 7 11 30.03 1017 10 16.0934 N/A
2:55 am 02:55 Clear 29 -1.5 25 -3.7 85 85 W 6 9 30 1016 10 16.0934 N/A
3:15 am 03:15 Clear 28 -2.4 24 -4.2 88 88 WNW 7 11 30 1016 10 16.0934 N/A
3:35 am 03:35 Clear 28 -2.5 24 -4.5 86 86 WNW 6 9 30 1016 10 16.0934 N/A
3:55 am 03:55 Clear 27 -2.8 24 -4.7 87 87 WNW 8 13 30 1016 10 16.0934 N/A
4:15 am 04:15 Clear 29 -1.9 25 -3.9 86 86 NW 6 9 30 1016 10 16.0934 N/A
4:35 am 04:35 Clear 28 -2.5 24 -4.4 87 87 WNW 3 6 30 1016 10 16.0934 N/A
4:55 am 04:55 Clear 27 -2.6 24 -4.4 88 88 WNW 8 13 30 1016 10 16.0934 N/A
5:15 am 05:15 Clear 27 -3 24 -4.7 88 88 NW 8 13 30 1016 10 16.0934 N/A
5:35 am 05:35 Clear 27 -2.7 24 -4.2 90 90 WNW 9 15 30 1016 10 16.0934 N/A
5:55 am 05:55 Clear 28 -2 26 -3.6 89 89 WNW 8 13 29.97 1015 10 16.0934 N/A
6:15 am 06:15 Clear 28 -2.1 25 -4 87 87 WNW 7 11 29.97 1015 10 16.0934 N/A
6:35 am 06:35 Clear 28 -2.5 25 -4.1 89 89 W 6 9 29.97 1015 10 16.0934 N/A
6:55 am 06:55 Clear 26 -3.6 22 -5.3 88 88 WNW 3 6 30 1016 10 16.0934 N/A
7:15 am 07:15 Clear 24 -4.3 22 -5.8 89 89 WNW 8 13 30.03 1017 10 16.0934 N/A
7:35 am 07:35 Sunny 25 -3.9 22 -5.3 90 90 WNW 5 7 30 1016 10 16.0934 N/A
7:55 am 07:55 Sunny 25 -4.1 22 -5.5 90 90 WNW 6 9 30.03 1017 10 16.0934 N/A
8:15 am 08:15 Sunny 26 -3.1 24 -4.5 90 90 NW 6 9 30 1016 10 16.0934 N/A
8:35 am 08:35 Sunny 29 -1.9 26 -3.5 89 89 WNW 6 9 30 1016 10 16.0934 N/A
8:55 am 08:55 Sunny 30 -1 26 -3.1 86 86 WNW 5 7 29.97 1015 10 16.0934 N/A
9:15 am 09:15 Sunny 32 -0.2 27 -2.7 83 83 NW 6 9 29.94 1014 10 16.0934 N/A
9:35 am 09:35 Sunny 33 0.4 28 -2.3 82 82 NW 7 11 29.94 1014 10 16.0934 N/A
9:55 am 09:55 Sunny 34 1.2 28 -2 79 79 WNW 7 11 29.94 1014 10 16.0934 N/A
10:15 am 10:15 Sunny 36 2.2 30 -1.2 78 78 WNW 5 7 29.88 1012 10 16.0934 N/A
10:35 am 10:35 Sunny 37 2.8 30 -1 76 76 NW 5 7 29.88 1012 10 16.0934 N/A
10:55 am 10:55 Sunny 39 4 31 -0.4 73 73 N N/A 29.88 1012 10 16.0934 N/A
11:15 am 11:15 Sunny 43 5.9 31 -0.5 64 64 W 8 13 29.85 1011 10 16.0934 N/A
11:35 am 11:35 Sunny 44 6.9 31 -0.7 59 59 W 9 15 29.85 1011 10 16.0934 N/A
11:55 am 11:55 Sunny 45 7 31 -0.6 59 59 WSW 8 13 29.85 1011 10 16.0934 N/A
12:15 pm 12:15 Sunny 45 7 31 -0.4 60 60 W 8 13 29.83 1010 10 16.0934 N/A
12:35 pm 12:35 Sunny 45 7.4 32 -0.1 59 59 W 8 13 29.83 1010 10 16.0934 N/A
12:55 pm 12:55 Partly Cloudy 46 7.8 32 undefined 58 58 WSW 8 13 29.77 1008 10 16.0934 N/A
1:15 pm 13:15 Partly Cloudy 48 8.7 32 0.1 55 55 WSW 9 15 29.77 1008 10 16.0934 N/A
1:35 pm 13:35 Partly Cloudy 49 9.4 33 0.3 53 53 WSW 9 15 29.74 1007 10 16.0934 N/A
1:55 pm 13:55 Sunny 48 9.1 32 undefined 53 53 WSW 9 15 29.74 1007 10 16.0934 N/A
2:15 pm 14:15 Partly Cloudy 49 9.2 32 undefined 53 53 W 13 20 29.74 1007 10 16.0934 N/A
2:35 pm 14:35 Partly Cloudy 50 9.8 32 0.1 51 51 WSW 14 22 29.71 1006 10 16.0934 N/A
2:55 pm 14:55 Sunny 50 10 32 undefined 50 50 WSW 12 19 29.71 1006 10 16.0934 N/A
3:15 pm 15:15 Sunny 49 9.6 32 undefined 52 52 W 12 19 29.71 1006 10 16.0934 N/A
3:35 pm 15:35 Sunny 49 9.3 32 0.1 53 53 WSW 7 11 29.71 1006 10 16.0934 N/A
3:55 pm 15:55 Sunny 50 10 33 0.6 52 52 WSW 5 7 29.71 1006 10 16.0934 N/A
4:15 pm 16:15 Sunny 51 10.4 33 0.7 51 51 SSW 8 13 29.71 1006 10 16.0934 N/A
4:35 pm 16:35 Partly Cloudy 49 9.3 34 1.3 58 58 SSW 6 9 29.68 1005 10 16.0934 N/A
4:55 pm 16:55 Mostly Cloudy 50 10 33 0.7 53 53 SSW 8 13 29.65 1004 10 16.0934 N/A
5:15 pm 17:15 Partly Cloudy 49 9.7 34 0.9 55 55 SW 6 9 29.65 1004 10 16.0934 N/A
5:35 pm 17:35 Sunny 46 8 33 0.5 59 59 SW 3 6 29.71 1006 10 16.0934 N/A
5:55 pm 17:55 Partly Cloudy 45 7 33 0.5 64 64 SW 3 6 29.68 1005 10 16.0934 N/A
6:15 pm 18:15 Mostly Cloudy 45 7.1 33 0.5 63 63 SSW 6 9 29.68 1005 10 16.0934 N/A
6:35 pm 18:35 Partly Cloudy 43 6.2 32 0.1 65 65 SW 3 6 29.71 1006 10 16.0934 N/A
6:55 pm 18:55 Partly Cloudy 44 6.4 32 0.2 65 65 W 3 6 29.71 1006 10 16.0934 N/A
7:15 pm 19:15 Partly Cloudy 42 5.4 33 0.3 70 70 W 7 11 29.71 1006 10 16.0934 N/A
7:35 pm 19:35 Mostly Cloudy 43 6.3 33 0.5 67 67 W 10 17 29.74 1007 10 16.0934 N/A
7:55 pm 19:55 Mostly Cloudy with Drizzle 43 5.9 33 0.6 69 69 W 9 15 29.71 1006 10 16.0934 N/A
8:15 pm 20:15 Mostly Cloudy 43 6 35 1.4 73 73 W 9 15 29.71 1006 10 16.0934 N/A
8:35 pm 20:35 Cloudy with Light Rain 43 6 36 2 76 76 WNW 10 17 29.71 1006 10 16.0934 N/A
8:55 pm 20:55 Mostly Cloudy 43 6.1 37 2.7 79 79 WNW 12 19 29.74 1007 10 16.0934 N/A
9:15 pm 21:15 Cloudy with Light Rain 43 6.2 38 3.1 81 81 WNW 15 24 29.74 1007 10 16.0934 N/A
9:35 pm 21:35 Cloudy with Rain 44 6.6 39 3.7 82 82 NW 16 26 29.71 1006 10 16.0934 0.01 0.254
9:55 pm 21:55 Cloudy 42 5.7 37 3 83 83 WNW 13 20 29.74 1007 10 16.0934 0.01 0.254
10:15 pm 22:15 Cloudy 42 5.7 37 3 83 83 W 13 20 29.74 1007 10 16.0934 N/A
10:35 pm 22:35 Cloudy 43 5.9 37 2.8 81 81 W 9 15 29.74 1007 10 16.0934 N/A
10:55 pm 22:55 Cloudy 41 5.1 37 2.5 83 83 NW 10 17 29.74 1007 10 16.0934 N/A
11:15 pm 23:15 Cloudy 43 6.1 37 2.5 78 78 NW 13 20 29.77 1008 10 16.0934 N/A
11:35 pm 23:35 Mostly Cloudy 41 5 36 2.1 82 82 NW 12 19 29.77 1008 10 16.0934 N/A
11:55 pm 23:55 Mostly Cloudy 40 4.5 35 1.8 83 83 NW 13 20 29.8 1009 10 16.0934 N/A

Powered by AerisWeather